When you browse on this site, cookies collect data to enhance your experience and personalize the content and advertising you see.
Visit our Privacy Policy to learn more. By continuing to use the site, you agree to this use of cookies and data.
  • In Latvia
  • List of Countries
  • For 7 days
  • Water Temperature
  • Weather Map
  • Weather Widgets
  • user-avatar
    Login

    Hourly Weather Klinovoe

    Today, 24 August, Saturday

    Time Temperature Precipitation Wind Pressure Humidity
    00:00 +15°C° 0 mm 2 mps 749 mmHg 86%
    01:00 +15°C° 0 mm 2 mps 750 mmHg 87%
    02:00 +14°C° 0 mm 2 mps 750 mmHg 87%
    03:00 +14°C° 0 mm 2 mps 750 mmHg 84%
    04:00 +14°C° 0 mm 1 mps 750 mmHg 85%
    05:00 +13°C° 0 mm 1 mps 750 mmHg 86%
    06:00 +13°C° 0 mm 1 mps 749 mmHg 87%
    07:00 +15°C° 0 mm 1 mps 750 mmHg 80%
    08:00 +18°C° 0 mm 1 mps 750 mmHg 74%
    09:00 +20°C° 0 mm 1 mps 750 mmHg 68%
    10:00 +21°C° 0 mm 1 mps 749 mmHg 62%
    11:00 +22°C° 0 mm 1 mps 749 mmHg 57%
    12:00 +23°C° 0 mm 1 mps 749 mmHg 51%
    13:00 +24°C° 0 mm 1 mps 749 mmHg 49%
    14:00 +24°C° 0 mm 1 mps 749 mmHg 47%
    15:00 +24°C° 0 mm 2 mps 748 mmHg 45%
    16:00 +24°C° 0 mm 2 mps 748 mmHg 51%
    17:00 +23°C° 0 mm 2 mps 748 mmHg 56%
    18:00 +23°C° 0 mm 2 mps 747 mmHg 61%
    19:00 +20°C° 0 mm 2 mps 747 mmHg 64%
    20:00 +19°C° 0 mm 2 mps 747 mmHg 68%
    21:00 +17°C° 0 mm 2 mps 747 mmHg 71%
    22:00 +17°C° 0 mm 2 mps 747 mmHg 73%
    23:00 +16°C° 0 mm 2 mps 747 mmHg 75%

    Tomorrow, 25 August, Sunday

    Time Temperature Precipitation Wind Pressure Humidity
    00:00 +16°C° 0 mm 2 mps 747 mmHg 77%
    01:00 +16°C° 0 mm 3 mps 747 mmHg 81%
    02:00 +14°C° 0 mm 3 mps 747 mmHg 84%
    03:00 +14°C° 0 mm 3 mps 747 mmHg 88%
    04:00 +14°C° 0 mm 3 mps 747 mmHg 90%
    05:00 +13°C° 0 mm 3 mps 747 mmHg 92%
    06:00 +13°C° 0 mm 3 mps 747 mmHg 94%
    07:00 +14°C° 0 mm 3 mps 747 mmHg 87%
    08:00 +17°C° 0 mm 3 mps 748 mmHg 80%
    09:00 +18°C° 0 mm 4 mps 748 mmHg 73%
    10:00 +19°C° 0 mm 4 mps 748 mmHg 68%
    11:00 +20°C° 0 mm 4 mps 748 mmHg 62%
    12:00 +21°C° 0 mm 5 mps 748 mmHg 57%
    13:00 +21°C° 0 mm 5 mps 748 mmHg 57%
    14:00 +21°C° 0 mm 5 mps 749 mmHg 57%
    15:00 +22°C° 0 mm 4 mps 749 mmHg 56%
    16:00 +21°C° 0 mm 4 mps 749 mmHg 61%
    17:00 +20°C° 0 mm 3 mps 749 mmHg 65%
    18:00 +20°C° 0 mm 3 mps 749 mmHg 70%
    19:00 +18°C° 0 mm 3 mps 749 mmHg 74%
    20:00 +17°C° 0 mm 2 mps 750 mmHg 77%
    21:00 +16°C° 0 mm 2 mps 750 mmHg 81%
    22:00 +15°C° 0 mm 2 mps 750 mmHg 83%
    23:00 +14°C° 0 mm 2 mps 750 mmHg 85%

    Day after tomorrow, 26 August, Monday

    Time Temperature Precipitation Wind Pressure Humidity
    00:00 +14°C° 0 mm 2 mps 751 mmHg 88%
    01:00 +13°C° 0 mm 2 mps 751 mmHg 89%
    02:00 +13°C° 0 mm 2 mps 751 mmHg 90%
    03:00 +12°C° 0 mm 1 mps 751 mmHg 91%
    04:00 +12°C° 0 mm 1 mps 751 mmHg 91%
    05:00 +12°C° 0 mm 1 mps 751 mmHg 92%
    06:00 +11°C° 0 mm 1 mps 751 mmHg 93%
    07:00 +13°C° 0 mm 1 mps 751 mmHg 86%
    08:00 +14°C° 0 mm 0 mps 751 mmHg 79%
    09:00 +15°C° 0 mm 0 mps 751 mmHg 72%
    10:00 +17°C° 0 mm 0 mps 751 mmHg 67%
    11:00 +18°C° 0 mm 0 mps 751 mmHg 61%
    12:00 +19°C° 0 mm 0 mps 751 mmHg 56%
    13:00 +22°C° 0 mm 1 mps 751 mmHg 53%
    14:00 +22°C° 0 mm 1 mps 751 mmHg 51%
    15:00 +22°C° 0 mm 1 mps 750 mmHg 48%
    16:00 +22°C° 0 mm 1 mps 750 mmHg 51%
    17:00 +22°C° 0 mm 1 mps 749 mmHg 55%
    18:00 +22°C° 0 mm 1 mps 749 mmHg 58%
    19:00 +20°C° 0 mm 1 mps 749 mmHg 61%
    20:00 +19°C° 0 mm 1 mps 748 mmHg 64%
    21:00 +16°C° 0 mm 1 mps 748 mmHg 66%
    22:00 +16°C° 0 mm 2 mps 748 mmHg 69%
    23:00 +16°C° 0 mm 2 mps 748 mmHg 71%

    27 August, Tuesday

    Time Temperature Precipitation Wind Pressure Humidity
    00:00 +15°C° 0 mm 2 mps 748 mmHg 74%
    01:00 +14°C° 0 mm 3 mps 747 mmHg 75%
    02:00 +13°C° 0 mm 3 mps 747 mmHg 77%
    03:00 +13°C° 0 mm 3 mps 746 mmHg 79%
    04:00 +13°C° 0 mm 3 mps 746 mmHg 81%
    05:00 +13°C° 0 mm 3 mps 746 mmHg 82%
    06:00 +13°C° 0 mm 3 mps 745 mmHg 84%
    07:00 +14°C° 0 mm 4 mps 745 mmHg 80%
    08:00 +16°C° 0 mm 5 mps 745 mmHg 76%
    09:00 +17°C° 0 mm 5 mps 744 mmHg 72%
    10:00 +19°C° 0 mm 5 mps 744 mmHg 69%
    11:00 +21°C° 0 mm 6 mps 744 mmHg 66%
    12:00 +22°C° 0 mm 6 mps 743 mmHg 63%
    13:00 +22°C° 0.5 mm 6 mps 743 mmHg 63%
    14:00 +22°C° 0.5 mm 6 mps 742 mmHg 64%
    15:00 +22°C° 0.5 mm 7 mps 742 mmHg 65%
    16:00 +21°C° 0.3 mm 6 mps 742 mmHg 67%
    17:00 +20°C° 0.3 mm 5 mps 741 mmHg 69%
    18:00 +20°C° 0.3 mm 5 mps 741 mmHg 71%
    19:00 +17°C° 0 mm 5 mps 741 mmHg 72%
    20:00 +16°C° 0 mm 5 mps 741 mmHg 73%
    21:00 +14°C° 0 mm 5 mps 742 mmHg 74%
    22:00 +13°C° 0 mm 5 mps 742 mmHg 75%
    23:00 +12°C° 0 mm 5 mps 742 mmHg 76%

    28 August, Wednesday

    Time Temperature Precipitation Wind Pressure Humidity
    00:00 +10°C° 0 mm 5 mps 743 mmHg 78%
    01:00 +9°C° 0 mm 5 mps 743 mmHg 79%
    02:00 +8°C° 0 mm 5 mps 743 mmHg 79%
    03:00 +7°C° 0 mm 5 mps 743 mmHg 80%
    04:00 +6°C° 0 mm 5 mps 744 mmHg 79%
    05:00 +5°C° 0 mm 4 mps 744 mmHg 78%
    06:00 +5°C° 0 mm 4 mps 744 mmHg 76%
    07:00 +6°C° 0 mm 5 mps 745 mmHg 73%
    08:00 +5°C° 0 mm 6 mps 745 mmHg 71%
    09:00 +6°C° 0 mm 7 mps 745 mmHg 68%
    10:00 +8°C° 0 mm 6 mps 745 mmHg 64%
    11:00 +9°C° 0 mm 6 mps 745 mmHg 60%
    12:00 +10°C° 0 mm 6 mps 746 mmHg 56%
    13:00 +10°C° 0 mm 6 mps 745 mmHg 56%
    14:00 +11°C° 0 mm 6 mps 745 mmHg 55%
    15:00 +13°C° 0 mm 6 mps 745 mmHg 55%
    16:00 +12°C° 0 mm 5 mps 745 mmHg 57%
    17:00 +12°C° 0 mm 5 mps 745 mmHg 59%
    18:00 +12°C° 0 mm 5 mps 745 mmHg 61%
    19:00 +10°C° 0 mm 4 mps 746 mmHg 66%
    20:00 +8°C° 0 mm 4 mps 746 mmHg 71%
    21:00 +7°C° 0 mm 3 mps 746 mmHg 75%
    22:00 +7°C° 0 mm 3 mps 746 mmHg 76%
    23:00 +5°C° 0 mm 3 mps 746 mmHg 77%

    29 August, Thursday

    Time Temperature Precipitation Wind Pressure Humidity
    00:00 +6°C° 0 mm 2 mps 746 mmHg 78%
    01:00 +4°C° 0 mm 3 mps 746 mmHg 79%
    02:00 +4°C° 0 mm 3 mps 746 mmHg 80%
    03:00 +4°C° 0 mm 3 mps 746 mmHg 81%
    04:00 +4°C° 0 mm 3 mps 746 mmHg 83%
    05:00 +3°C° 0 mm 3 mps 746 mmHg 85%
    06:00 +3°C° 0 mm 3 mps 746 mmHg 87%
    07:00 +5°C° 0 mm 4 mps 746 mmHg 80%
    08:00 +7°C° 0 mm 4 mps 746 mmHg 73%
    09:00 +8°C° 0 mm 5 mps 746 mmHg 66%
    10:00 +9°C° 0 mm 5 mps 746 mmHg 65%
    11:00 +9°C° 0 mm 6 mps 746 mmHg 64%
    12:00 +9°C° 0 mm 6 mps 746 mmHg 63%
    13:00 +10°C° 0 mm 6 mps 745 mmHg 61%
    14:00 +10°C° 0 mm 5 mps 745 mmHg 59%
    15:00 +12°C° 0 mm 5 mps 745 mmHg 57%
    16:00 +12°C° 0 mm 5 mps 745 mmHg 59%
    17:00 +12°C° 0 mm 4 mps 746 mmHg 61%
    18:00 +11°C° 0 mm 4 mps 746 mmHg 63%
    19:00 +10°C° 0 mm 4 mps 746 mmHg 67%
    20:00 +8°C° 0 mm 4 mps 746 mmHg 72%
    21:00 +8°C° 0 mm 3 mps 746 mmHg 76%
    22:00 +7°C° 0 mm 3 mps 746 mmHg 78%
    23:00 +7°C° 0 mm 3 mps 746 mmHg 80%
    Show more